Weather History for Marathon, FL

Change the Weather History Date:

Sunday, February 17, 2013

  Actual Average Record
Temperature  
Mean Temperature 59 °F 72 °F  
Max Temperature 65 °F 77 °F 84 °F (2008)
Min Temperature 52 °F 67 °F 50 °F (2007)
Degree Days  
Heating Degree Days 6 1  
Month to date heating degree days 6 13  
Since 1 July heating degree days 12 72  
Cooling Degree Days 0 7  
Month to date cooling degree days 146 114  
Year to date cooling degree days 474 295  
Growing Degree Days 8 (Base 50)    
Moisture  
Dew Point 37 °F    
Average Humidity 51    
Maximum Humidity 67    
Minimum Humidity 35    
Precipitation  
Precipitation 0.00 in 0.08 in 0.24 in (2008)
Month to date precipitation 1.12 1.33  
Year to date precipitation 1.66 2.94  
Snow  
Snow 0.00 in - - ()
Month to date snowfall 0.0  
Since 1 July snowfall 0.0  
Snow Depth 0.00 in    
Sea Level Pressure  
Sea Level Pressure 30.22 in    
Wind  
Wind Speed 12 mph (North)    
Max Wind Speed 24 mph    
Max Gust Speed 35 mph    
Visibility 10 miles    
Events      
T = Trace of Precipitation, MM = Missing Value Source: NWS Daily Summary

Daily Weather History Graph

Daily Weather History Graph

Search for Another Location

Airport:

Trip Planner

Search our weather history database for the weather conditions in past years. The results will help you decide how hot, cold, wet, or windy it might be!

Date:

Astronomy

Feb. 17, 2013 Rise Set
Actual Time 6:56 AM EST 6:20 PM EST
Civil Twilight 6:33 AM EST 6:43 PM EST
Nautical Twilight 6:06 AM EST 7:10 PM EST
Astronomical Twilight 5:40 AM EST 7:36 PM EST
Moon 11:37 AM EST 12:26 AM EST
Length of Visible Light 12h 09m
Length of Day
11h 23m
Waxing Crescent, 49% of the Moon is Illuminated
Feb 17
Waxing Crescent
Feb 17
First Quarter
Feb 25
Full
Mar 4
Last Quarter
Mar 11
New

Hourly Weather History & Observations

Time (EST) Temp. Dew Point Humidity Pressure Visibility Wind Dir Wind Speed Gust Speed Precip Events Conditions
12:53 AM 63.0 °F 51.1 °F 65% 30.10 in 10.0 mi NNW 10.4 mph 21.9 mph N/A   Overcast
1:53 AM 64.0 °F 45.0 °F 50% 30.11 in 10.0 mi NNW 20.7 mph 31.1 mph N/A   Overcast
2:53 AM 64.0 °F 44.1 °F 48% 30.09 in 10.0 mi NNW 17.3 mph 29.9 mph N/A   Overcast
3:53 AM 62.1 °F 46.0 °F 56% 30.10 in 10.0 mi North 12.7 mph 23.0 mph N/A   Mostly Cloudy
4:53 AM 61.0 °F 46.9 °F 60% 30.12 in 10.0 mi North 17.3 mph 27.6 mph N/A   Mostly Cloudy
5:53 AM 57.0 °F 43.0 °F 59% 30.14 in 10.0 mi North 15.0 mph 27.6 mph N/A   Mostly Cloudy
6:53 AM 54.0 °F 39.0 °F 57% 30.18 in 10.0 mi NNE 19.6 mph 27.6 mph N/A   Partly Cloudy
7:53 AM 53.1 °F 37.0 °F 55% 30.21 in 10.0 mi North 20.7 mph 34.5 mph N/A   Partly Cloudy
8:53 AM 54.0 °F 33.1 °F 45% 30.25 in 10.0 mi North 15.0 mph 29.9 mph N/A   Clear
9:53 AM 55.9 °F 34.0 °F 44% 30.27 in 10.0 mi North 11.5 mph 28.8 mph N/A   Clear
10:53 AM 57.0 °F 33.1 °F 40% 30.29 in 10.0 mi North 16.1 mph 27.6 mph N/A   Clear
11:53 AM 59.0 °F 34.0 °F 39% 30.29 in 10.0 mi North 11.5 mph 19.6 mph N/A   Clear
1:53 PM 60.1 °F 33.1 °F 36% 30.26 in 10.0 mi North 6.9 mph - N/A   Clear
2:53 PM 61.0 °F 33.1 °F 35% 30.25 in 10.0 mi North 9.2 mph 16.1 mph N/A   Clear
3:53 PM 60.1 °F 35.1 °F 39% 30.25 in 10.0 mi North 6.9 mph - N/A   Clear
4:53 PM 59.0 °F 33.1 °F 38% 30.25 in 10.0 mi North 6.9 mph - N/A   Clear
5:53 PM 57.9 °F 32.0 °F 37% 30.26 in 10.0 mi NNE 5.8 mph - N/A   Clear
6:53 PM 57.0 °F 30.9 °F 37% 30.27 in 10.0 mi NNE 6.9 mph - N/A   Clear
7:53 PM 57.0 °F 32.0 °F 39% 30.27 in 10.0 mi NE 8.1 mph - N/A   Clear
8:53 PM 55.9 °F 30.0 °F 37% 30.29 in 10.0 mi NNE 9.2 mph - N/A   Clear
9:53 PM 55.9 °F 28.0 °F 34% 30.29 in 10.0 mi NE 10.4 mph - N/A   Clear
10:53 PM 55.9 °F 30.0 °F 37% 30.30 in 10.0 mi ENE 5.8 mph - N/A   Clear